Hourly Weather Bolshoe Babino

Today, 20 June, Sunday

Time Temperature Precipitation Wind Pressure Humidity
00:00 +19°C° 0 mm 2 mps 750 mmHg 92%
01:00 +19°C° 0 mm 2 mps 750 mmHg 93%
02:00 +18°C° 0 mm 2 mps 750 mmHg 93%
03:00 +19°C° 0 mm 2 mps 750 mmHg 93%
04:00 +19°C° 0 mm 2 mps 750 mmHg 93%
05:00 +19°C° 0 mm 2 mps 750 mmHg 92%
06:00 +21°C° 0 mm 2 mps 750 mmHg 87%
07:00 +24°C° 0 mm 2 mps 750 mmHg 81%
08:00 +25°C° 0 mm 2 mps 750 mmHg 76%
09:00 +26°C° 0 mm 3 mps 750 mmHg 72%
10:00 +27°C° 0 mm 3 mps 750 mmHg 68%
11:00 +28°C° 0 mm 4 mps 750 mmHg 64%
12:00 +29°C° 0 mm 3 mps 750 mmHg 62%
13:00 +29°C° 0 mm 3 mps 750 mmHg 59%
14:00 +29°C° 0 mm 3 mps 749 mmHg 57%
15:00 +29°C° 0 mm 3 mps 749 mmHg 60%
16:00 +29°C° 0 mm 3 mps 749 mmHg 63%
17:00 +28°C° 0 mm 3 mps 749 mmHg 66%
18:00 +27°C° 0 mm 2 mps 749 mmHg 72%
19:00 +25°C° 0 mm 2 mps 749 mmHg 78%
20:00 +24°C° 0 mm 2 mps 748 mmHg 84%
21:00 +23°C° 0 mm 2 mps 748 mmHg 85%
22:00 +21°C° 0 mm 2 mps 748 mmHg 86%
23:00 +20°C° 0 mm 2 mps 748 mmHg 87%

Tomorrow, 21 June, Monday

Time Temperature Precipitation Wind Pressure Humidity
00:00 +20°C° 0 mm 2 mps 748 mmHg 87%
01:00 +19°C° 0 mm 2 mps 748 mmHg 88%
02:00 +19°C° 0 mm 2 mps 748 mmHg 88%
03:00 +19°C° 0 mm 2 mps 748 mmHg 88%
04:00 +19°C° 0 mm 2 mps 748 mmHg 88%
05:00 +19°C° 0 mm 2 mps 748 mmHg 88%
06:00 +21°C° 0 mm 2 mps 748 mmHg 83%
07:00 +22°C° 0 mm 3 mps 748 mmHg 77%
08:00 +24°C° 0 mm 3 mps 748 mmHg 72%
09:00 +26°C° 0 mm 4 mps 748 mmHg 67%
10:00 +27°C° 0 mm 4 mps 748 mmHg 61%
11:00 +28°C° 0 mm 5 mps 748 mmHg 56%
12:00 +28°C° 0 mm 5 mps 748 mmHg 55%
13:00 +29°C° 0 mm 5 mps 748 mmHg 54%
14:00 +29°C° 0 mm 5 mps 747 mmHg 53%
15:00 +29°C° 0 mm 4 mps 747 mmHg 57%
16:00 +29°C° 0 mm 4 mps 747 mmHg 60%
17:00 +28°C° 0 mm 4 mps 747 mmHg 63%
18:00 +27°C° 0 mm 4 mps 747 mmHg 70%
19:00 +25°C° 0 mm 3 mps 747 mmHg 76%
20:00 +24°C° 0 mm 3 mps 747 mmHg 83%
21:00 +22°C° 0 mm 3 mps 747 mmHg 86%
22:00 +21°C° 0 mm 3 mps 747 mmHg 89%
23:00 +21°C° 0 mm 3 mps 747 mmHg 92%

Day after tomorrow, 22 June, Tuesday

Time Temperature Precipitation Wind Pressure Humidity
00:00 +20°C° 0 mm 3 mps 747 mmHg 93%
01:00 +20°C° 0 mm 3 mps 747 mmHg 94%
02:00 +19°C° 0 mm 3 mps 747 mmHg 95%
03:00 +20°C° 0 mm 3 mps 747 mmHg 95%
04:00 +20°C° 0 mm 3 mps 747 mmHg 94%
05:00 +20°C° 0 mm 3 mps 747 mmHg 94%
06:00 +21°C° 0 mm 4 mps 747 mmHg 87%
07:00 +23°C° 0 mm 4 mps 747 mmHg 80%
08:00 +26°C° 0 mm 5 mps 747 mmHg 74%
09:00 +27°C° 0 mm 5 mps 747 mmHg 69%
10:00 +28°C° 0 mm 5 mps 747 mmHg 64%
11:00 +29°C° 0 mm 5 mps 747 mmHg 59%
12:00 +30°C° 0 mm 5 mps 747 mmHg 57%
13:00 +30°C° 0 mm 5 mps 747 mmHg 56%
14:00 +32°C° 0 mm 5 mps 747 mmHg 54%
15:00 +32°C° 0 mm 5 mps 747 mmHg 57%
16:00 +30°C° 0 mm 4 mps 747 mmHg 60%
17:00 +30°C° 0 mm 4 mps 746 mmHg 63%
18:00 +29°C° 0 mm 4 mps 747 mmHg 70%
19:00 +27°C° 0 mm 3 mps 747 mmHg 77%
20:00 +25°C° 0 mm 3 mps 747 mmHg 84%
21:00 +24°C° 0 mm 3 mps 747 mmHg 86%
22:00 +22°C° 0 mm 3 mps 747 mmHg 88%
23:00 +21°C° 0 mm 3 mps 747 mmHg 89%

23 June, Wednesday

Time Temperature Precipitation Wind Pressure Humidity
00:00 +21°C° 0 mm 3 mps 747 mmHg 91%
01:00 +20°C° 0 mm 3 mps 747 mmHg 93%
02:00 +19°C° 0 mm 3 mps 747 mmHg 94%
03:00 +20°C° 0 mm 3 mps 747 mmHg 94%
04:00 +20°C° 0 mm 2 mps 748 mmHg 93%
05:00 +20°C° 0 mm 2 mps 748 mmHg 93%
06:00 +22°C° 0 mm 3 mps 748 mmHg 86%
07:00 +25°C° 0 mm 3 mps 748 mmHg 80%
08:00 +27°C° 0 mm 3 mps 748 mmHg 74%
09:00 +28°C° 0 mm 4 mps 748 mmHg 69%
10:00 +29°C° 0 mm 4 mps 748 mmHg 64%
11:00 +32°C° 0 mm 4 mps 748 mmHg 59%
12:00 +32°C° 0 mm 4 mps 748 mmHg 57%
13:00 +33°C° 0 mm 4 mps 748 mmHg 55%
14:00 +33°C° 0 mm 4 mps 748 mmHg 54%
15:00 +33°C° 0 mm 4 mps 748 mmHg 56%
16:00 +33°C° 0 mm 4 mps 748 mmHg 59%
17:00 +33°C° 0 mm 3 mps 748 mmHg 61%
18:00 +30°C° 0 mm 3 mps 748 mmHg 68%
19:00 +28°C° 0 mm 3 mps 748 mmHg 74%
20:00 +27°C° 0 mm 2 mps 748 mmHg 80%
21:00 +26°C° 0 mm 3 mps 748 mmHg 81%
22:00 +25°C° 0 mm 3 mps 748 mmHg 82%
23:00 +24°C° 0 mm 3 mps 748 mmHg 83%

24 June, Thursday

Time Temperature Precipitation Wind Pressure Humidity
00:00 +24°C° 0.1 mm 3 mps 748 mmHg 86%
01:00 +23°C° 0.1 mm 2 mps 748 mmHg 89%
02:00 +23°C° 0.1 mm 2 mps 748 mmHg 93%
03:00 +23°C° 0 mm 2 mps 748 mmHg 93%
04:00 +23°C° 0 mm 2 mps 748 mmHg 93%
05:00 +23°C° 0 mm 2 mps 748 mmHg 92%
06:00 +25°C° 0 mm 2 mps 748 mmHg 85%
07:00 +26°C° 0 mm 3 mps 748 mmHg 78%
08:00 +28°C° 0 mm 3 mps 749 mmHg 71%
09:00 +29°C° 0 mm 3 mps 749 mmHg 66%
10:00 +30°C° 0 mm 4 mps 749 mmHg 61%
11:00 +32°C° 0 mm 4 mps 749 mmHg 57%
12:00 +32°C° 0 mm 4 mps 749 mmHg 56%
13:00 +33°C° 0 mm 4 mps 749 mmHg 55%
14:00 +33°C° 0 mm 4 mps 749 mmHg 54%
15:00 +33°C° 0.1 mm 4 mps 748 mmHg 57%
16:00 +33°C° 0.1 mm 3 mps 748 mmHg 59%
17:00 +33°C° 0.1 mm 3 mps 748 mmHg 61%
18:00 +30°C° 0.1 mm 3 mps 748 mmHg 68%
19:00 +28°C° 0.1 mm 3 mps 748 mmHg 75%
20:00 +26°C° 0.1 mm 3 mps 747 mmHg 82%
21:00 +25°C° 0.2 mm 2 mps 747 mmHg 84%
22:00 +24°C° 0.2 mm 2 mps 748 mmHg 86%
23:00 +23°C° 0.2 mm 1 mps 748 mmHg 88%

25 June, Friday

Time Temperature Precipitation Wind Pressure Humidity
00:00 +23°C° 0.1 mm 1 mps 748 mmHg 89%
01:00 +21°C° 0.1 mm 2 mps 747 mmHg 91%
02:00 +21°C° 0.1 mm 2 mps 747 mmHg 93%
03:00 +21°C° 0.1 mm 2 mps 747 mmHg 92%
04:00 +21°C° 0.1 mm 2 mps 747 mmHg 92%
05:00 +21°C° 0.1 mm 2 mps 747 mmHg 92%
06:00 +24°C° 0 mm 3 mps 747 mmHg 86%
07:00 +26°C° 0 mm 3 mps 747 mmHg 81%
08:00 +28°C° 0 mm 4 mps 747 mmHg 75%
09:00 +29°C° 0 mm 4 mps 747 mmHg 70%
10:00 +30°C° 0 mm 4 mps 747 mmHg 65%
11:00 +32°C° 0 mm 4 mps 747 mmHg 59%
12:00 +33°C° 0 mm 4 mps 747 mmHg 57%
13:00 +33°C° 0 mm 4 mps 747 mmHg 54%
14:00 +33°C° 0 mm 4 mps 747 mmHg 51%
15:00 +33°C° 0 mm 4 mps 747 mmHg 55%
16:00 +33°C° 0 mm 4 mps 746 mmHg 59%
17:00 +31°C° 0 mm 3 mps 746 mmHg 63%
18:00 +30°C° 0.1 mm 3 mps 746 mmHg 68%
19:00 +28°C° 0.1 mm 3 mps 745 mmHg 74%
20:00 +27°C° 0.1 mm 2 mps 745 mmHg 79%
21:00 +26°C° 0.2 mm 3 mps 745 mmHg 82%
22:00 +25°C° 0.2 mm 3 mps 746 mmHg 84%
23:00 +24°C° 0.2 mm 3 mps 746 mmHg 87%
Show more